Wind_Speed
22 22 21 21 22 22 20 22 21 19 14 13 11 12 13 8 10 7 6 7 6 1 2 1 6 13 19 23 28 27 25 29 28 17 22 23 23 21 19 18 19 16 12 12 15 16 27 32 27
25 25 24 23 22 22 24 22 21 18 13 11 12 10 8 15 10 7 5 6 6 3 4 2 4 11 17 20 27 27 25 28 29 19 19 23 24 19 17 18 19 17 13 17 15 12 12 13 15
24 24 24 23 26 26 26 24 20 19 16 11 13 12 12 12 10 8 4 5 5 5 2 4 2 9 15 18 26 25 25 28 31 25 20 23 23 21 19 18 17 16 18 17 17 17 15 13 10
22 22 22 22 23 23 20 16 18 17 16 14 15 14 11 9 10 8 7 5 4 6 2 1 3 7 11 16 23 29 25 28 32 32 26 20 21 26 27 25 23 21 20 17 14 12 10 8 8
21 19 16 14 13 13 13 11 12 15 15 14 13 12 10 9 9 9 10 9 5 3 6 3 2 4 8 12 17 24 27 24 30 32 34 33 29 27 26 27 27 27 25 22 20 18 16 15 14
18 16 16 14 11 12 12 13 11 13 13 14 12 13 11 8 8 9 11 12 10 3 3 1 3 5 5 8 13 19 22 22 23 27 28 28 29 29 31 32 32 32 29 26 21 16 12 11 11
17 14 13 14 14 13 13 13 13 12 13 11 10 10 10 8 8 10 11 12 11 9 4 4 5 6 6 5 9 16 19 25 23 23 25 26 27 28 31 36 39 40 40 38 39 36 28 19 17
16 13 15 13 13 13 13 16 13 12 12 11 8 9 10 8 9 12 12 12 10 10 9 7 7 11 10 3 5 14 20 21 23 24 24 26 26 29 35 38 37 36 38 35 35 33 35 34 31
17 14 16 17 16 16 16 13 15 14 12 13 13 10 10 11 11 12 15 12 12 10 12 10 10 14 12 10 6 9 14 19 21 22 23 27 26 33 34 30 29 29 31 36 35 31 30 28 23
18 18 17 18 18 18 19 19 19 18 18 17 16 14 13 12 13 14 17 16 13 12 13 14 14 14 15 13 10 8 12 13 16 23 22 26 26 26 27 26 26 24 24 27 29 28 29 30 23
19 19 17 18 17 19 18 18 15 17 17 19 16 16 16 15 14 15 17 17 15 13 12 12 16 15 16 16 14 10 12 12 13 16 20 22 22 24 23 20 20 23 23 21 22 24 21 23 25
18 19 18 17 16 15 15 15 11 10 20 19 19 14 11 9 9 10 12 14 13 11 11 10 14 17 16 17 18 13 14 13 14 13 14 13 13 15 17 13 12 16 18 18 18 22 23 23 22
22 19 16 18 11 10 16 16 10 18 22 21 17 13 9 12 12 12 10 5 5 9 13 13 8 14 19 19 20 16 17 14 12 14 10 13 7 9 6 9 11 12 10 13 14 15 17 21 21
21 19 16 7 13 13 15 22 19 23 23 19 19 18 16 22 22 26 23 18 13 9 8 13 10 6 20 23 23 21 17 15 12 10 7 7 5 1 5 7 6 4 7 10 12 12 14 14 16
18 16 12 10 7 15 20 19 16 9 24 20 13 13 8 3 12 17 21 14 19 19 4 6 11 10 13 24 26 22 18 18 14 10 10 6 1 2 2 4 6 3 5 7 5 9 9 7 9
16 17 14 11 15 14 18 18 8 17 22 9 10 6 10 23 14 9 12 12 11 8 11 3 8 14 14 24 28 26 20 16 16 13 8 7 5 6 7 8 7 5 3 4 3 4 5 3 8
18 16 15 17 13 21 22 18 12 9 9 6 4 5 10 9 5 4 2 10 17 14 11 11 12 15 18 22 32 32 25 18 12 16 16 12 12 8 11 12 8 6 2 2 3 5 3 6 6
20 21 4 3 14 16 24 12 12 19 18 13 11 9 14 11 6 15 14 12 14 17 7 6 7 22 17 26 32 35 34 28 17 16 14 14 14 12 14 13 11 9 9 9 7 7 7 7 10
21 14 14 10 7 5 17 8 10 14 16 10 15 16 18 10 5 10 3 14 15 15 12 18 8 9 12 24 32 34 37 35 30 20 15 11 15 21 21 20 16 16 16 14 15 17 12 11 14
18 19 14 14 8 11 11 12 13 6 8 10 10 15 25 20 19 11 11 8 12 12 5 8 7 6 9 19 27 30 34 36 33 28 24 24 14 23 25 21 20 22 19 25 24 21 19 18 19
23 19 18 19 11 12 12 7 13 6 7 5 7 9 17 34 30 27 22 20 20 12 12 7 6 7 6 18 22 24 28 33 34 37 34 24 24 29 34 31 27 31 30 18 18 23 27 23 24
17 23 18 16 15 10 14 13 12 9 10 15 13 11 11 20 30 38 29 30 29 30 33 25 16 14 8 10 21 22 25 29 36 38 38 39 36 32 36 34 37 40 40 39 35 31 29 28 29
20 21 17 14 9 7 13 9 9 10 13 7 5 15 9 16 23 31 32 30 36 40 33 31 25 20 15 9 9 18 25 27 28 35 41 44 47 41 27 41 45 45 45 43 39 36 31 31 30
25 20 16 11 10 15 11 7 3 8 13 13 23 23 16 13 22 25 27 26 31 30 29 27 27 25 19 13 10 11 15 22 29 36 24 34 39 37 36 33 35 51 52 52 53 49 42 38 36
22 18 15 16 15 17 11 10 16 24 16 15 14 13 13 13 16 22 27 27 28 27 26 25 23 21 22 18 16 13 16 20 26 31 33 38 45 54 55 52 51 41 33 34 38 44 43 44 41
24 16 17 19 20 10 17 21 12 14 11 11 5 5 13 16 13 17 25 33 30 27 26 26 25 23 23 23 20 18 20 18 19 21 26 32 35 41 44 45 43 41 45 46 41 39 41 41 41
23 19 22 21 19 12 12 9 14 13 16 18 14 11 11 19 24 24 24 30 33 30 26 26 27 24 24 25 26 25 25 24 19 24 25 27 28 29 29 32 36 37 36 36 38 38 38 38 41
21 21 18 19 19 10 8 10 11 16 19 19 16 21 17 22 25 28 24 32 33 32 29 30 31 30 28 26 27 28 29 28 25 27 30 30 31 32 31 32 32 32 32 33 34 37 36 33 31
19 21 21 17 19 12 11 16 16 27 17 22 25 26 25 30 28 26 27 25 35 33 30 31 33 35 32 31 29 30 28 26 27 30 33 36 38 36 37 36 36 36 37 39 39 39 39 39 37
20 23 20 18 16 11 6 10 17 18 15 21 7 16 20 27 28 33 28 27 28 41 38 35 36 36 36 35 33 33 32 33 33 32 37 40 38 38 40 40 39 41 41 41 41 40 41 43 46
Wind_Direction
311 308 306 300 301 302 299 300 301 303 315 321 326 341 345 336 323 329 341 351 357 310 173 104 15 7 6 12 18 22 24 33 35 74 76 82 84 93 98 99 114 124 145 181 191 205 226 238 243
308 308 305 300 296 290 294 296 300 307 317 313 315 312 312 325 323 301 331 353 352 333 206 160 1 0 13 21 19 25 33 38 42 69 94 88 86 96 100 96 108 117 109 130 137 163 179 200 222
308 305 302 299 293 292 295 300 304 308 316 311 309 312 302 304 300 284 291 325 3 344 202 208 12 14 19 24 23 33 41 45 52 62 90 85 85 90 98 101 104 106 109 114 118 128 147 169 166
320 315 308 302 298 295 298 301 304 306 309 307 304 302 301 300 292 277 257 267 327 1 352 234 67 38 28 31 34 39 44 55 64 69 82 90 89 96 97 98 102 106 110 110 113 122 136 143 145
331 325 319 326 316 311 305 302 311 309 308 304 299 293 289 281 287 278 263 253 272 347 359 335 171 79 44 42 48 39 40 65 73 77 83 89 94 95 92 94 97 100 100 103 110 119 125 131 142
329 344 337 334 334 332 328 324 323 309 305 310 309 301 291 278 280 276 269 256 250 273 331 276 178 113 66 42 48 43 51 67 78 82 81 84 89 93 94 93 94 93 93 93 93 100 114 125 130
325 339 344 338 348 344 337 339 343 334 326 320 315 304 291 278 267 271 264 270 260 246 266 221 179 155 111 43 48 54 68 68 72 83 86 90 93 94 95 98 96 93 87 86 83 81 84 97 106
321 325 324 337 344 348 349 344 348 341 332 322 317 313 304 291 268 265 264 257 260 239 246 234 185 173 132 79 86 77 73 66 76 78 84 89 95 100 103 105 99 92 86 86 87 84 82 85 93
330 321 311 326 327 334 329 329 331 330 324 315 321 318 303 288 281 267 272 256 248 247 248 223 212 180 130 137 132 93 81 72 74 82 82 87 96 106 111 106 98 90 88 84 85 82 83 87 96
325 321 337 333 327 319 322 328 329 328 326 327 324 318 305 292 278 269 257 261 259 261 258 232 214 199 177 158 155 115 94 88 83 86 88 94 99 109 115 106 95 85 89 82 78 77 76 80 86
325 323 330 323 326 333 328 327 338 334 350 358 342 328 319 309 292 271 259 252 254 258 258 223 206 217 189 165 167 134 118 108 116 100 102 98 91 115 110 107 97 85 87 94 76 77 73 79 80
319 321 329 331 336 332 331 329 342 359 350 359 354 346 334 331 327 304 276 262 248 245 225 223 222 204 203 192 181 167 153 139 128 118 115 96 89 100 110 100 100 93 96 102 77 70 74 66 68
314 317 324 334 323 329 2 346 345 360 7 10 356 10 23 41 39 46 30 346 279 262 205 195 239 212 210 200 189 178 170 151 143 126 120 94 115 102 109 111 106 94 101 99 80 71 73 66 59
306 312 335 326 323 333 355 3 352 357 11 357 29 34 67 53 56 39 34 36 27 359 248 221 214 262 209 205 198 187 182 167 169 150 158 137 165 140 101 132 125 122 102 94 91 71 54 52 52
298 313 319 331 289 296 338 331 338 338 349 14 31 86 55 18 38 30 30 39 24 359 300 225 248 227 237 213 200 194 187 182 173 176 159 175 117 296 260 126 128 165 120 120 122 57 39 20 31
297 299 295 261 250 305 319 322 315 321 336 36 86 9 46 351 300 306 358 39 14 340 319 261 267 245 246 218 211 197 184 185 197 193 192 199 239 251 248 251 213 201 192 167 129 132 126 23 358
290 293 291 306 316 284 299 314 353 324 329 314 250 26 272 225 317 190 101 171 260 314 265 290 294 276 257 226 211 208 187 183 194 200 196 202 225 230 259 248 241 220 219 263 192 181 218 275 292
280 276 276 308 268 281 283 275 287 315 285 273 254 239 161 138 156 195 213 235 249 299 286 247 322 273 252 222 213 214 205 199 198 229 234 219 238 248 244 251 253 240 242 235 228 231 273 285 292
276 295 313 291 251 224 242 223 46 4 305 291 260 231 159 154 174 191 262 231 260 297 281 275 295 290 245 224 216 215 215 214 221 215 220 212 242 252 234 240 253 249 254 260 263 258 257 266 289
284 288 288 282 251 227 249 203 161 333 277 252 232 225 192 195 188 199 211 198 261 287 3 296 338 345 252 229 219 222 219 216 221 227 213 219 218 236 250 250 252 255 258 271 269 248 252 264 272
283 273 269 273 270 245 270 225 217 251 229 269 308 252 206 211 215 196 215 207 180 246 292 307 318 306 300 230 229 224 219 220 223 222 223 218 250 256 244 241 247 245 248 240 264 270 256 263 275
264 259 265 259 258 240 262 274 264 264 239 318 304 272 226 225 229 209 225 237 231 245 250 269 290 293 302 256 224 225 225 221 222 224 228 221 220 253 260 242 242 249 256 256 265 271 263 271 276
270 262 256 238 256 245 248 247 263 287 270 280 295 324 324 269 243 230 227 239 260 249 261 270 268 264 285 276 231 226 234 231 233 231 232 233 234 247 267 260 251 252 256 261 264 267 267 267 268
274 258 244 243 226 238 241 228 261 311 261 230 271 308 307 280 251 244 228 235 252 256 258 261 260 258 269 260 224 212 226 235 232 221 231 229 219 228 242 260 262 254 260 266 263 268 269 272 271
254 250 240 227 229 242 196 124 317 276 277 282 299 314 311 299 274 245 238 241 253 254 251 251 254 253 251 242 241 212 214 229 239 236 242 249 232 239 254 253 255 253 254 272 267 264 272 271 269
254 242 231 232 240 248 172 184 197 226 240 229 241 337 349 355 336 271 251 245 253 254 251 252 248 246 242 242 241 242 233 235 244 247 242 246 249 252 254 256 257 259 261 269 270 270 270 275 271
258 232 233 247 252 235 199 204 250 251 274 259 267 277 335 343 343 332 267 251 246 250 251 251 242 245 247 249 247 247 249 243 247 251 247 247 254 254 257 257 257 261 267 269 268 268 269 270 270
253 250 239 243 255 248 206 257 276 275 269 290 296 298 311 335 337 328 304 250 249 250 253 253 249 245 250 254 251 251 251 257 255 254 255 248 252 257 262 260 259 261 268 273 270 266 267 268 269
252 243 248 248 252 261 220 230 252 266 294 304 312 281 302 328 331 320 317 274 246 247 248 252 253 254 254 248 247 247 245 248 253 256 256 257 256 259 263 265 268 268 275 275 276 271 267 262 261
256 260 261 253 260 270 247 245 242 249 267 306 304 291 324 336 332 322 317 301 264 242 245 252 252 252 249 242 246 240 249 256 253 256 255 259 263 266 266 267 267 267 269 270 271 269 268 268 266
Height
11002 11001 11000 10998 10996 10992 10994 10994 10993 10994 10996 10994 10992 10993 10991 10991 10989 10987 10986 10985 10984 10983 10983 10983 10983 10981 10979 10975 10968 10961 10956 10948 10942 10938 10937 10936 10936 10938 10939 10940 10941 10944 10946 10949 10954 10958 10963 10966 10969
10999 10997 10997 10995 10992 10993 10992 10992 10992 10991 10993 10992 10991 10991 10990 10989 10987 10987 10985 10984 10983 10983 10983 10983 10982 10982 10980 10977 10971 10965 10959 10953 10946 10941 10941 10940 10941 10942 10944 10945 10946 10947 10949 10951 10953 10958 10962 10965 10971
10995 10993 10992 10990 10989 10988 10988 10988 10988 10988 10991 10992 10990 10989 10989 10987 10986 10985 10983 10983 10982 10983 10983 10983 10983 10983 10982 10980 10975 10970 10963 10958 10951 10945 10945 10945 10945 10946 10948 10949 10950 10951 10952 10953 10956 10960 10965 10970 10974
10993 10990 10989 10987 10985 10985 10984 10985 10984 10985 10987 10989 10988 10987 10986 10985 10983 10983 10982 10983 10982 10983 10984 10984 10984 10985 10984 10982 10979 10975 10969 10964 10959 10953 10950 10950 10950 10952 10953 10954 10956 10956 10957 10958 10960 10963 10965 10966 10971
10991 10988 10986 10984 10983 10982 10981 10982 10982 10982 10982 10984 10986 10986 10985 10984 10982 10980 10980 10981 10982 10984 10985 10985 10985 10984 10984 10983 10982 10978 10975 10971 10966 10962 10958 10956 10956 10957 10958 10959 10960 10961 10962 10963 10963 10964 10965 10967 10971
10989 10987 10985 10983 10982 10981 10981 10981 10982 10981 10982 10981 10982 10980 10981 10981 10980 10980 10978 10979 10981 10983 10985 10984 10985 10985 10985 10985 10985 10982 10979 10976 10973 10969 10966 10964 10964 10964 10965 10965 10966 10967 10968 10968 10968 10968 10969 10971 10972
10987 10988 10985 10984 10982 10981 10979 10980 10980 10979 10978 10978 10978 10977 10977 10978 10978 10976 10976 10976 10979 10981 10982 10982 10984 10986 10986 10987 10987 10985 10983 10980 10978 10975 10972 10970 10970 10970 10971 10972 10972 10973 10974 10974 10974 10972 10971 10972 10974
10988 10988 10985 10985 10981 10980 10980 10978 10978 10977 10976 10976 10976 10976 10974 10974 10974 10972 10972 10974 10977 10980 10980 10981 10981 10984 10985 10987 10988 10988 10986 10984 10983 10981 10978 10977 10976 10976 10977 10978 10979 10980 10980 10980 10980 10979 10978 10978 10979
10987 10986 10983 10981 10980 10979 10977 10977 10975 10975 10977 10977 10974 10973 10972 10972 10971 10972 10968 10972 10974 10978 10978 10979 10980 10983 10986 10987 10989 10990 10989 10989 10988 10986 10984 10982 10982 10983 10984 10984 10985 10986 10986 10986 10986 10986 10986 10985 10985
10985 10981 10981 10980 10978 10976 10975 10975 10974 10973 10971 10972 10973 10972 10969 10968 10968 10969 10968 10967 10970 10973 10976 10976 10978 10981 10985 10988 10990 10991 10991 10992 10993 10990 10989 10987 10987 10988 10989 10990 10990 10990 10991 10991 10991 10990 10990 10990 10988
10983 10981 10980 10979 10978 10977 10974 10972 10973 10971 10972 10968 10968 10968 10967 10965 10963 10963 10965 10967 10968 10971 10973 10974 10976 10979 10984 10988 10989 10991 10992 10992 10993 10993 10992 10991 10992 10993 10993 10994 10994 10993 10993 10994 10996 10995 10994 10994 10994
10982 10980 10980 10978 10977 10973 10972 10970 10971 10971 10970 10968 10965 10963 10963 10962 10960 10960 10961 10963 10964 10966 10970 10974 10974 10977 10982 10986 10987 10990 10992 10993 10994 10995 10995 10997 10998 10998 10999 10999 10998 10997 10996 10996 10998 10999 10999 10997 10996
10978 10977 10976 10972 10969 10967 10969 10971 10971 10973 10970 10968 10964 10963 10964 10963 10959 10959 10960 10962 10963 10964 10967 10972 10976 10977 10979 10982 10985 10988 10992 10995 10996 10997 10998 10999 11002 11003 11002 11002 11002 11001 11000 10998 10998 10999 11000 11000 10999
10974 10973 10973 10969 10965 10967 10966 10972 10974 10975 10972 10968 10963 10964 10966 10967 10964 10962 10962 10963 10963 10967 10971 10974 10976 10980 10980 10981 10984 10987 10993 10996 10997 10999 11000 11002 11004 11005 11004 11001 11002 11002 11002 11001 10999 10999 11000 11001 11000
10972 10971 10969 10964 10967 10963 10968 10971 10970 10970 10969 10966 10960 10961 10967 10968 10968 10966 10965 10963 10966 10966 10968 10971 10975 10978 10980 10980 10983 10986 10991 10994 10995 10998 11000 11001 11002 11003 11005 11003 11001 11001 11001 11001 11001 11001 11001 11001 11000
10969 10967 10966 10963 10963 10964 10968 10969 10966 10964 10967 10964 10959 10964 10966 10975 10969 10967 10965 10961 10964 10967 10972 10971 10971 10972 10975 10978 10981 10984 10989 10992 10994 10996 11001 11002 11002 11001 11002 11002 11000 11000 11000 11000 11000 10999 10999 11000 11001
10961 10963 10963 10959 10958 10966 10963 10961 10962 10962 10963 10958 10958 10964 10967 10965 10965 10964 10966 10966 10967 10968 10969 10971 10971 10970 10970 10971 10976 10981 10987 10989 10993 10997 11001 11002 11002 11003 11002 11000 11002 11001 11000 11001 11001 11001 11000 10999 10999
10955 10958 10962 10962 10966 10967 10961 10960 10963 10960 10957 10957 10954 10958 10962 10962 10963 10963 10965 10967 10966 10966 10967 10968 10972 10978 10965 10965 10969 10976 10983 10987 10993 11001 11002 11001 11000 11003 11002 11005 11005 11003 11001 11000 11000 11000 11001 10999 10999
10952 10954 10954 10957 10961 10962 10954 10962 10960 10951 10958 10954 10954 10956 10960 10964 10962 10964 10968 10968 10964 10957 10958 10963 10963 10964 10959 10961 10964 10971 10979 10987 10993 11000 10999 10997 10996 10997 10999 11000 11004 11002 11001 11000 11000 11000 10998 10998 10998
10948 10952 10950 10952 10953 10956 10951 10958 10952 10952 10952 10957 10951 10954 10960 10962 10962 10964 10968 10965 10959 10956 10952 10954 10957 10957 10954 10957 10963 10969 10977 10986 10992 10991 10992 10993 10996 10994 10994 10994 10997 10999 10998 10998 10996 10996 10997 10997 10997
10945 10945 10946 10944 10944 10947 10946 10952 10953 10950 10949 10948 10953 10955 10957 10959 10960 10961 10963 10951 10958 10955 10954 10956 10959 10956 10954 10955 10959 10967 10975 10980 10982 10982 10983 10990 10984 10987 10992 10988 10991 10993 10995 10991 10992 10993 10994 10992 10993
10941 10941 10941 10941 10944 10946 10946 10949 10946 10944 10949 10949 10950 10954 10954 10956 10955 10958 10956 10955 10955 10951 10948 10953 10958 10958 10954 10953 10957 10962 10968 10973 10976 10979 10982 10987 10981 10981 10984 10983 10983 10985 10986 10984 10986 10988 10989 10988 10988
10935 10939 10938 10938 10944 10941 10943 10946 10943 10943 10943 10947 10948 10948 10949 10950 10948 10950 10953 10956 10952 10951 10948 10952 10955 10954 10954 10953 10955 10961 10964 10965 10971 10972 10975 10975 10978 10978 10976 10975 10979 10979 10977 10977 10977 10981 10982 10982 10981
10933 10935 10934 10935 10939 10937 10941 10945 10945 10941 10941 10941 10944 10943 10945 10944 10945 10944 10945 10948 10943 10943 10948 10948 10948 10952 10954 10954 10956 10959 10959 10958 10960 10967 10966 10966 10968 10966 10969 10970 10969 10968 10969 10967 10968 10971 10972 10971 10973
10928 10931 10930 10931 10933 10934 10941 10944 10945 10940 10941 10940 10942 10940 10937 10939 10939 10939 10938 10940 10939 10939 10941 10943 10946 10948 10951 10953 10955 10956 10956 10954 10952 10958 10961 10962 10960 10958 10960 10963 10962 10963 10961 10958 10959 10962 10962 10962 10966
10926 10928 10926 10926 10928 10932 10938 10936 10932 10936 10934 10935 10936 10936 10932 10931 10934 10935 10935 10933 10937 10937 10940 10942 10943 10945 10947 10948 10949 10952 10954 10953 10951 10950 10954 10954 10955 10957 10957 10957 10956 10955 10954 10950 10951 10951 10952 10954 10956
10921 10922 10920 10923 10924 10928 10932 10934 10932 10933 10933 10932 10930 10929 10927 10926 10927 10929 10930 10932 10933 10935 10936 10938 10941 10942 10943 10943 10944 10945 10948 10949 10948 10948 10949 10949 10948 10948 10949 10949 10948 10946 10943 10942 10943 10943 10943 10944 10946
10915 10916 10920 10920 10918 10923 10928 10928 10924 10919 10919 10922 10923 10923 10922 10922 10923 10924 10925 10926 10929 10929 10932 10933 10935 10936 10936 10936 10936 10937 10939 10940 10941 10942 10942 10943 10942 10941 10941 10940 10938 10937 10936 10936 10936 10937 10936 10937 10937
10910 10912 10914 10917 10915 10919 10923 10921 10917 10909 10916 10918 10920 10920 10921 10915 10917 10919 10920 10921 10923 10924 10926 10924 10927 10929 10931 10932 10931 10931 10932 10933 10933 10933 10934 10934 10933 10932 10932 10932 10932 10931 10929 10928 10929 10930 10930 10930 10930
10907 10908 10909 10911 10913 10919 10917 10915 10908 10912 10915 10913 10913 10914 10913 10906 10912 10914 10914 10918 10918 10919 10919 10920 10921 10922 10924 10926 10927 10926 10926 10926 10926 10926 10925 10924 10924 10924 10924 10924 10923 10921 10919 10919 10919 10919 10919 10920 10919